FW3095 Weather Reports


Display with metric or nautical units.
time (UTC)temp
F
wind
direction
speed
MPH
gust
MPH
rain 1hr
in
rain 24hr
in
rain mn
in
humidity
%
barometer
mb
20260906131535 67 39 3.0 7.0 0.00 0.01 0.00 86 990.2
20260906130040 66 91 3.0 8.0 0.00 0.01 0.00 89 990.1
20260906124532 66 30 1.0 8.0 0.00 0.01 0.00 91 990.2
20260906123029 65 15 3.0 7.0 0.00 0.01 0.00 91 989.9
20260906121528 65 128 3.0 7.0 0.00 0.01 0.00 94 989.7
20260906120025 65 49 1.0 4.0 0.00 0.01 0.00 95 989.6
20260906114523 0 0.0 0.0 0.00 0.01 0.00 989.2
20260906113018 0 0.0 0.0 0.00 0.01 0.00 988.9
20260906111513 0 0.0 0.0 0.00 0.01 0.00 988.7
20260906110009 0 0.0 0.0 0.00 0.01 0.00 988.5
20260906104506 0 0.0 0.0 0.00 0.01 0.00 988.4
20260906103001 64 57 1.0 5.0 0.00 0.01 0.00 96 988.3
20260906101600 64 42 1.0 3.0 0.00 0.01 0.00 97 988.2
20260906100100 64 45 1.0 3.0 0.00 0.01 0.00 97 987.9
20260906094602 64 60 1.0 4.0 0.00 0.01 0.00 97 987.8
20260906093058 65 55 0.0 3.0 0.00 0.01 0.00 96 987.8
20260906091552 65 63 1.0 5.0 0.00 0.01 0.00 96 987.7
20260906090052 65 75 0.0 3.0 0.00 0.01 0.00 96 987.5
20260906084554 65 64 0.0 3.0 0.00 0.01 0.00 96 987.6
20260906083048 65 28 0.0 4.0 0.00 0.01 0.00 96 987.7
20260906081548 65 55 1.0 3.0 0.00 0.01 0.00 97 987.4
20260906080053 66 53 0.0 4.0 0.00 0.01 0.00 96 987.6
20260906074544 66 38 1.0 4.0 0.00 0.01 0.00 97 987.5
20260906073043 66 37 1.0 5.0 0.00 0.01 0.00 97 987.4
20260906071542 66 58 0.0 4.0 0.00 0.01 0.00 97 987.4
20260906070041 66 53 1.0 6.0 0.00 0.01 0.00 97 987.2
20260906064540 66 46 1.0 4.0 0.00 0.01 0.00 97 987.6
20260906063038 67 46 1.0 5.0 0.00 0.01 0.00 97 987.5
20260906061540 67 56 2.0 5.0 0.00 0.01 0.00 97 987.6
20260906060037 67 38 0.0 4.0 0.00 0.01 0.00 96 987.5
20260906054535 67 63 1.0 5.0 0.00 0.01 0.00 97 987.4
20260906053032 68 66 1.0 3.0 0.00 0.01 0.00 97 987.1
20260906051530 68 64 0.0 3.0 0.00 0.01 0.00 96 987.2
20260906050028 69 80 1.0 4.0 0.00 0.01 0.00 96 987.2
20260906044527 69 42 1.0 5.0 0.00 0.01 0.00 96 987.2
20260906043023 70 62 2.0 6.0 0.00 0.01 0.00 96 986.8
20260906041528 70 61 2.0 9.0 0.00 0.01 0.00 97 986.8
20260906040017 71 56 2.0 5.0 0.00 0.01 0.00 96 986.9
20260906034525 71 96 2.0 8.0 0.00 0.01 0.01 96 986.9
20260906033018 72 60 1.0 7.0 0.00 0.01 0.01 97 987.1
20260906031514 72 39 2.0 7.0 0.00 0.01 0.01 96 986.9
20260906030013 73 56 3.0 8.0 0.00 0.01 0.01 96 986.7
20260906024510 73 63 3.0 8.0 0.00 0.01 0.01 97 986.3
20260906023009 73 52 3.0 10.0 0.00 0.01 0.01 97 986.2
20260906021513 73 45 4.0 9.0 0.00 0.01 0.01 97 986.1
20260906020009 74 108 2.0 6.0 0.01 0.01 0.01 97 986.0
20260906014518 74 51 4.0 7.0 0.01 0.01 0.01 97 985.8
20260906013006 75 53 2.0 10.0 0.01 0.01 0.01 96 985.4
20260906011506 76 45 4.0 11.0 0.01 0.01 0.01 95 985.2
20260906010008 76 77 3.0 10.0 0.00 0.00 0.00 93 985.0
20260906004505 77 62 3.0 10.0 0.00 0.00 0.00 92 984.9
20260906003004 78 30 2.0 10.0 0.00 0.00 0.00 89 984.8
20260906001502 80 56 1.0 4.0 0.00 0.00 0.00 85 984.5
20260906000003 82 337 2.0 5.0 0.00 0.00 0.00 84 984.5
20260905234503 83 292 1.0 4.0 0.00 0.00 0.00 82 984.6
20260905233000 84 326 2.0 6.0 0.00 0.00 0.00 82 984.4
20260905231600 84 293 1.0 3.0 0.00 0.00 0.00 82 984.2
20260905230059 84 293 0.0 3.0 0.00 0.00 0.00 81 984.2
20260905224613 86 302 2.0 6.0 0.00 0.00 0.00 78 984.2
20260905223106 87 296 0.0 1.0 0.00 0.00 0.00 78 984.0
20260905221558 87 296 1.0 4.0 0.00 0.00 0.00 76 984.0
20260905220057 89 333 1.0 4.0 0.00 0.00 0.00 76 983.8
20260905214559 88 333 0.0 3.0 0.00 0.00 0.00 80 983.8
20260905213056 87 48 0.0 5.0 0.00 0.00 0.00 81 983.8
20260905211556 86 13 1.0 4.0 0.00 0.00 0.00 81 983.5
20260905210056 87 303 1.0 4.0 0.00 0.00 0.00 80 983.6
20260905204554 85 270 1.0 4.0 0.00 0.00 0.00 86 983.6
20260905203054 89 300 4.0 10.0 0.00 0.00 0.00 74 983.6
20260905201601 89 244 3.0 6.0 0.00 0.00 0.00 75 983.7
20260905200052 89 227 3.0 10.0 0.00 0.00 0.00 76 983.9
20260905194550 89 249 4.0 9.0 0.00 0.00 0.00 76 984.0
20260905193048 89 259 4.0 9.0 0.00 0.00 0.00 75 984.4
20260905191550 89 248 3.0 8.0 0.00 0.00 0.00 77 984.3
20260905190100 88 238 4.0 8.0 0.00 0.00 0.00 75 984.5
20260905184559 88 280 4.0 7.0 0.00 0.00 0.00 76 984.7
20260905183043 88 246 4.0 8.0 0.00 0.00 0.00 76 984.7
20260905181543 87 242 5.0 10.0 0.00 0.00 0.00 75 984.9
20260905180041 87 250 4.0 8.0 0.00 0.00 0.00 74 985.1
20260905174545 87 158 1.0 5.0 0.00 0.00 0.00 76 985.1
20260905173040 86 268 4.0 9.0 0.00 0.00 0.00 76 985.3
20260905171536 86 231 3.0 7.0 0.00 0.00 0.00 73 985.6
20260905170035 86 232 3.0 8.0 0.00 0.00 0.00 73 985.7
20260905164534 85 153 2.0 7.0 0.00 0.01 0.00 76 985.9
20260905163033 86 158 0.0 7.0 0.00 0.01 0.00 76 986.2
20260905161530 85 267 1.0 7.0 0.00 0.01 0.00 77 986.2
20260905160030 84 152 1.0 5.0 0.00 0.01 0.00 77 986.0
20260905154525 83 158 3.0 7.0 0.00 0.01 0.00 77 986.1
20260905153022 82 153 2.0 8.0 0.00 0.01 0.00 78 986.0
20260905151519 81 70 1.0 8.0 0.00 0.01 0.00 80 985.6
20260905150015 79 148 1.0 7.0 0.00 0.01 0.00 83 986.0
20260905144512 78 158 5.0 8.0 0.00 0.01 0.00 84 985.9
20260905143011 76 224 2.0 11.0 0.00 0.01 0.00 86 985.7
20260905141508 76 126 5.0 9.0 0.00 0.01 0.00 86 985.7
20260905140006 76 153 4.0 11.0 0.00 0.01 0.00 88 985.7
20260905134505 74 152 3.0 11.0 0.00 0.01 0.00 89 985.6
20260905133004 73 141 8.0 13.0 0.00 0.01 0.00 89 985.4